Starlink 33916

operational
NORAD ID: 63792 Int'l Des: 2025-091 Owner: SPXS Country: US Constellation: starlink
LEOCIRCULAR

About Starlink 33916

Description loading...

Live Position

Loading 3D Globe...

Upcoming Passes

Altitude History

Altitude vs Time

uPlot chart will show altitude changes over time

Two-Line Element Set

1 63792U 25091T 26034.98033283 .00025318 00000-0 92542-3 0 9999
2 63792 42.9999 243.1735 0002915 265.0004 95.0514 15.27612574 43742
Epoch: Feb 3, 2026 • Age: 10 hours

Current Status

Altitude 488.3 km
Velocity 7.62 km/s
Sub-Earth Point -26.68°S, 169.97°E
Launch Date May 2, 2025
Age 0.7 years
Type internet

Technical Details

Classification Payload
Mass 575.00 kg
Dry Mass 530.00 kg
Total Mass 575.00 kg
Length 0.30 m
Diameter 4.10 m
Span 29.00 m
Shape Box + pan
Manufacturer SPXS
Bus Type Starlink V2MO
Phase Status In Orbit
Owner/State SPXS/US

Large Constellations

Loading constellations...